AFL600 URSS-UDYZ

Flight info

Callsign AFL600
Flight time 0h 59m
Altitude 31000
Route TABAN1S TABAN N166 OGMOS B143 IDLER M747 BARUS DCT OGEVI T918 TIBLO
Aircraft A320/M-SADE2E3FGHIJ1RWY/LB1U1

Departure

Time 2026-05-05 20:27
Airport Sochi International Airport (URSS)

Arrival

Time 2026-05-05 21:27
Airport Zvartnots International Airport (UDYZ)
Time Latitude Longitude Altitude Speed Heading
2026-05-05 20:02 43.44753 39.94180 75 ft 0 kts 335°
2026-05-05 20:15 43.44751 39.94181 75 ft 2 kts 335°
2026-05-05 20:15 43.44728 39.94196 69 ft 4 kts 335°
2026-05-05 20:16 43.44704 39.94212 70 ft 4 kts 335°
2026-05-05 20:16 43.44679 39.94228 71 ft 4 kts 335°
2026-05-05 20:16 43.44659 39.94239 64 ft 4 kts 354°
2026-05-05 20:16 43.44636 39.94231 66 ft 4 kts 52°
2026-05-05 20:17 43.44626 39.94208 69 ft 0 kts 65°
2026-05-05 20:20 43.44627 39.94210 69 ft 2 kts 65°
2026-05-05 20:20 43.44643 39.94259 68 ft 6 kts 65°
2026-05-05 20:20 43.44676 39.94355 69 ft 15 kts 64°
2026-05-05 20:21 43.44718 39.94477 64 ft 14 kts 64°
2026-05-05 20:21 43.44762 39.94609 69 ft 15 kts 65°
2026-05-05 20:21 43.44806 39.94737 70 ft 17 kts 64°
2026-05-05 20:21 43.44865 39.94908 69 ft 20 kts 64°
2026-05-05 20:22 43.44924 39.95077 81 ft 19 kts 62°
2026-05-05 20:22 43.44981 39.95237 90 ft 18 kts 65°
2026-05-05 20:22 43.45029 39.95382 91 ft 15 kts 64°
2026-05-05 20:22 43.45063 39.95485 92 ft 7 kts 78°
2026-05-05 20:23 43.45046 39.95520 92 ft 0 kts 152°
2026-05-05 20:24 43.45034 39.95528 91 ft 8 kts 154°
2026-05-05 20:25 43.44973 39.95563 91 ft 7 kts 174°
2026-05-05 20:25 43.44949 39.95516 91 ft 5 kts 244°
2026-05-05 20:25 43.44945 39.95502 89 ft 0 kts 244°
2026-05-05 20:26 43.44944 39.95500 89 ft 4 kts 244°
2026-05-05 20:26 43.44836 39.95181 83 ft 75 kts 244°
2026-05-05 20:27 43.44520 39.94257 69 ft 134 kts 245°
2026-05-05 20:27 43.44060 39.92902 198 ft 169 kts 246°
2026-05-05 20:27 43.43617 39.91402 869 ft 169 kts 255°
2026-05-05 20:27 43.43315 39.89852 1644 ft 167 kts 257°
2026-05-05 20:28 43.43061 39.88305 2340 ft 165 kts 257°
2026-05-05 20:28 43.42810 39.86733 2831 ft 177 kts 257°
2026-05-05 20:28 43.42528 39.84983 3114 ft 199 kts 256°
2026-05-05 20:28 43.42203 39.83002 3432 ft 224 kts 256°
2026-05-05 20:29 43.41835 39.80798 3857 ft 249 kts 256°
2026-05-05 20:29 43.41433 39.78397 4480 ft 264 kts 256°
2026-05-05 20:29 43.41012 39.75913 5359 ft 269 kts 257°
2026-05-05 20:29 43.40586 39.73392 6271 ft 273 kts 258°
2026-05-05 20:30 43.40163 39.70866 7129 ft 277 kts 257°
2026-05-05 20:30 43.39723 39.68270 7996 ft 280 kts 255°
2026-05-05 20:30 43.38970 39.65793 8848 ft 284 kts 236°
2026-05-05 20:30 43.37610 39.63843 9718 ft 285 kts 213°
2026-05-05 20:31 43.35792 39.62779 10503 ft 288 kts 191°
2026-05-05 20:31 43.33729 39.62331 10804 ft 311 kts 187°
2026-05-05 20:31 43.31516 39.61945 11230 ft 327 kts 186°
2026-05-05 20:31 43.29231 39.61575 11924 ft 333 kts 186°
2026-05-05 20:32 43.26920 39.61204 12691 ft 337 kts 186°
2026-05-05 20:32 43.24575 39.60822 13462 ft 341 kts 186°
2026-05-05 20:32 43.22212 39.60422 14176 ft 344 kts 186°
2026-05-05 20:32 43.19829 39.60008 14859 ft 346 kts 186°
2026-05-05 20:33 43.17430 39.59589 15541 ft 349 kts 186°
2026-05-05 20:33 43.15044 39.59175 16212 ft 351 kts 186°
2026-05-05 20:33 43.12607 39.58750 16894 ft 354 kts 186°
2026-05-05 20:33 43.10150 39.58325 17564 ft 357 kts 186°
2026-05-05 20:34 43.07672 39.57895 18226 ft 360 kts 186°
2026-05-05 20:34 43.05179 39.57461 18800 ft 363 kts 186°
2026-05-05 20:34 43.02668 39.57022 19375 ft 365 kts 186°
2026-05-05 20:34 43.00141 39.56576 19956 ft 367 kts 186°
2026-05-05 20:35 42.97599 39.56129 20524 ft 370 kts 186°
2026-05-05 20:35 42.95039 39.55680 21087 ft 372 kts 186°
2026-05-05 20:35 42.92469 39.55234 21641 ft 374 kts 186°
2026-05-05 20:35 42.89880 39.54786 22184 ft 376 kts 186°
2026-05-05 20:36 42.87274 39.54335 22725 ft 378 kts 186°
2026-05-05 20:36 42.84661 39.53885 23255 ft 380 kts 186°
2026-05-05 20:36 42.82027 39.53436 23739 ft 383 kts 186°
2026-05-05 20:36 42.79374 39.52984 24186 ft 385 kts 186°
2026-05-05 20:37 42.76713 39.52528 24602 ft 387 kts 186°
2026-05-05 20:37 42.74944 39.52224 24887 ft 388 kts 186°
2026-05-05 20:37 42.71348 39.51610 25436 ft 390 kts 185°
2026-05-05 20:37 42.68637 39.51632 25833 ft 391 kts 171°
2026-05-05 20:38 42.66026 39.52672 26226 ft 394 kts 155°
2026-05-05 20:38 42.63723 39.54693 26613 ft 398 kts 139°
2026-05-05 20:38 42.61923 39.57569 26993 ft 404 kts 123°
2026-05-05 20:38 42.60775 39.61069 27366 ft 411 kts 110°
2026-05-05 20:39 42.59963 39.64794 27745 ft 413 kts 109°
2026-05-05 20:39 42.59151 39.68546 28125 ft 415 kts 109°
2026-05-05 20:39 42.58337 39.72312 28514 ft 417 kts 109°
2026-05-05 20:39 42.57518 39.76094 28877 ft 419 kts 109°
2026-05-05 20:40 42.56689 39.79890 29246 ft 421 kts 110°
2026-05-05 20:40 42.55850 39.83711 29601 ft 423 kts 110°
2026-05-05 20:40 42.55005 39.87542 29935 ft 425 kts 110°
2026-05-05 20:40 42.54153 39.91388 30243 ft 427 kts 110°
2026-05-05 20:41 42.53297 39.95256 30503 ft 429 kts 110°
2026-05-05 20:41 42.52440 39.99140 30763 ft 431 kts 109°
2026-05-05 20:41 42.51579 40.03041 30977 ft 433 kts 110°
2026-05-05 20:42 42.49892 40.10678 31036 ft 411 kts 110°
2026-05-05 20:42 42.48288 40.18025 31043 ft 405 kts 109°
2026-05-05 20:43 42.47046 40.24144 31043 ft 405 kts 108°
2026-05-05 20:43 42.45592 40.31519 31043 ft 405 kts 108°
2026-05-05 20:44 42.44117 40.38877 31043 ft 405 kts 108°
2026-05-05 20:44 42.42622 40.46229 31039 ft 404 kts 109°
2026-05-05 20:45 42.40363 40.57222 31028 ft 404 kts 109°
2026-05-05 20:45 42.38851 40.64541 31022 ft 404 kts 109°
2026-05-05 20:46 42.37335 40.71869 31023 ft 405 kts 109°
2026-05-05 20:46 42.35816 40.79200 31021 ft 405 kts 109°
2026-05-05 20:47 42.34304 40.86488 31019 ft 405 kts 109°
2026-05-05 20:47 42.32779 40.93813 31022 ft 405 kts 109°
2026-05-05 20:48 42.31243 41.01140 31019 ft 405 kts 109°
2026-05-05 20:48 42.29698 41.08469 31016 ft 406 kts 109°
2026-05-05 20:49 42.28151 41.15800 31012 ft 406 kts 109°
2026-05-05 20:49 42.26602 41.23130 31012 ft 406 kts 109°
2026-05-05 20:50 42.25045 41.30461 31012 ft 406 kts 109°
2026-05-05 20:50 42.23480 41.37784 31011 ft 406 kts 109°
2026-05-05 20:51 42.21917 41.45111 31010 ft 407 kts 109°
2026-05-05 20:51 42.20348 41.52443 31009 ft 407 kts 109°
2026-05-05 20:52 42.18767 41.59775 31008 ft 407 kts 109°
2026-05-05 20:52 42.17176 41.67109 31010 ft 408 kts 109°
2026-05-05 20:53 42.15583 41.74449 31011 ft 408 kts 109°
2026-05-05 20:53 42.13946 41.81773 31019 ft 408 kts 110°
2026-05-05 20:54 42.12284 41.89093 31011 ft 409 kts 110°
2026-05-05 20:54 42.10623 41.96415 31007 ft 409 kts 110°
2026-05-05 20:55 42.08966 42.03741 31015 ft 409 kts 110°
2026-05-05 20:55 42.07309 42.11060 31009 ft 409 kts 110°
2026-05-05 20:56 42.05642 42.18377 30998 ft 409 kts 110°
2026-05-05 20:56 42.03966 42.25692 31004 ft 409 kts 110°
2026-05-05 20:57 42.02299 42.32966 31005 ft 409 kts 110°
2026-05-05 20:57 42.00600 42.40331 31005 ft 410 kts 110°
2026-05-05 20:58 41.98910 42.47656 31002 ft 410 kts 110°
2026-05-05 20:58 41.97227 42.54918 31000 ft 410 kts 111°
2026-05-05 20:59 41.95516 42.62240 30998 ft 410 kts 111°
2026-05-05 20:59 41.93808 42.69565 30998 ft 411 kts 111°
2026-05-05 21:00 41.92094 42.76891 30994 ft 411 kts 111°
2026-05-05 21:00 41.89863 42.83876 30993 ft 404 kts 127°
2026-05-05 21:01 41.86163 42.89448 30998 ft 399 kts 140°
2026-05-05 21:01 41.82090 42.94508 30994 ft 399 kts 140°
2026-05-05 21:02 41.78012 42.99573 30998 ft 400 kts 140°
2026-05-05 21:02 41.73940 43.04643 30998 ft 400 kts 140°
2026-05-05 21:03 41.69869 43.09699 30998 ft 399 kts 140°
2026-05-05 21:03 41.65790 43.14736 30991 ft 399 kts 141°
2026-05-05 21:04 41.61717 43.19764 30993 ft 399 kts 141°
2026-05-05 21:04 41.57643 43.24790 30991 ft 399 kts 141°
2026-05-05 21:05 41.53566 43.29810 30988 ft 399 kts 141°
2026-05-05 21:05 41.49487 43.34819 30990 ft 398 kts 141°
2026-05-05 21:06 41.45412 43.39814 30985 ft 398 kts 142°
2026-05-05 21:06 41.41336 43.44815 30987 ft 398 kts 142°
2026-05-05 21:07 41.37260 43.49799 30985 ft 398 kts 142°
2026-05-05 21:07 41.33182 43.54772 30985 ft 398 kts 142°
2026-05-05 21:08 41.29107 43.59729 30753 ft 393 kts 142°
2026-05-05 21:08 41.27130 43.62136 30512 ft 388 kts 142°
2026-05-05 21:08 41.25152 43.64542 30088 ft 384 kts 143°
2026-05-05 21:09 41.23188 43.66930 29571 ft 380 kts 143°
2026-05-05 21:09 41.21253 43.69284 29118 ft 375 kts 142°
2026-05-05 21:09 41.19340 43.71607 28680 ft 370 kts 142°
2026-05-05 21:09 41.17455 43.73891 28251 ft 365 kts 142°
2026-05-05 21:10 41.15555 43.76080 27816 ft 357 kts 148°
2026-05-05 21:10 41.13462 43.77761 27386 ft 348 kts 159°
2026-05-05 21:10 41.11223 43.78863 26975 ft 340 kts 168°
2026-05-05 21:10 41.08918 43.79393 26576 ft 333 kts 176°
2026-05-05 21:11 41.06624 43.79723 26189 ft 330 kts 175°
2026-05-05 21:11 41.04351 43.80056 25786 ft 327 kts 175°
2026-05-05 21:11 41.02098 43.80388 25391 ft 325 kts 175°
2026-05-05 21:11 40.99861 43.80723 24976 ft 323 kts 175°
2026-05-05 21:12 40.97632 43.81059 24556 ft 322 kts 175°
2026-05-05 21:12 40.95412 43.81396 24140 ft 321 kts 174°
2026-05-05 21:12 40.93193 43.81732 23709 ft 320 kts 174°
2026-05-05 21:12 40.90982 43.82064 23224 ft 320 kts 174°
2026-05-05 21:13 40.88778 43.82393 22793 ft 318 kts 174°
2026-05-05 21:13 40.86586 43.82717 22360 ft 316 kts 174°
2026-05-05 21:13 40.84407 43.83038 21943 ft 314 kts 174°
2026-05-05 21:13 40.82261 43.83357 21519 ft 313 kts 174°
2026-05-05 21:14 40.80099 43.83676 21095 ft 312 kts 174°
2026-05-05 21:14 40.77943 43.83991 20684 ft 311 kts 174°
2026-05-05 21:14 40.75795 43.84304 20266 ft 310 kts 174°
2026-05-05 21:14 40.73651 43.84617 19853 ft 310 kts 174°
2026-05-05 21:15 40.71508 43.84928 19452 ft 309 kts 174°
2026-05-05 21:15 40.69366 43.85214 19036 ft 309 kts 175°
2026-05-05 21:15 40.67223 43.85486 18633 ft 309 kts 175°
2026-05-05 21:15 40.65083 43.85753 18220 ft 309 kts 175°
2026-05-05 21:16 40.62951 43.86019 17782 ft 308 kts 175°
2026-05-05 21:16 40.60822 43.86285 17386 ft 306 kts 175°
2026-05-05 21:16 40.58714 43.86550 16989 ft 304 kts 175°
2026-05-05 21:16 40.56612 43.86813 16604 ft 302 kts 175°
2026-05-05 21:17 40.54523 43.87075 16216 ft 301 kts 174°
2026-05-05 21:17 40.52443 43.87340 15840 ft 300 kts 174°
2026-05-05 21:17 40.50392 43.87603 15458 ft 300 kts 174°
2026-05-05 21:17 40.48317 43.87871 15077 ft 299 kts 174°
2026-05-05 21:18 40.46246 43.88135 14704 ft 299 kts 174°
2026-05-05 21:18 40.44175 43.88396 14314 ft 299 kts 174°
2026-05-05 21:18 40.42108 43.88660 13935 ft 299 kts 174°
2026-05-05 21:18 40.40036 43.88924 13528 ft 299 kts 173°
2026-05-05 21:19 40.38010 43.89504 13127 ft 299 kts 161°
2026-05-05 21:19 40.36108 43.90595 12734 ft 298 kts 155°
2026-05-05 21:19 40.34235 43.91750 12344 ft 296 kts 155°
2026-05-05 21:19 40.32404 43.92872 11971 ft 288 kts 155°
2026-05-05 21:20 40.30589 43.93979 11583 ft 287 kts 155°
2026-05-05 21:20 40.28776 43.95082 11217 ft 287 kts 155°
2026-05-05 21:20 40.26963 43.96185 10913 ft 287 kts 155°
2026-05-05 21:20 40.25156 43.97286 10534 ft 286 kts 155°
2026-05-05 21:21 40.23347 43.98392 10148 ft 287 kts 155°
2026-05-05 21:21 40.21533 43.99495 9739 ft 288 kts 155°
2026-05-05 21:21 40.19715 44.00595 9308 ft 287 kts 156°
2026-05-05 21:21 40.17931 44.01673 8907 ft 277 kts 156°
2026-05-05 21:22 40.16315 44.02926 8513 ft 267 kts 139°
2026-05-05 21:22 40.15185 44.04782 8127 ft 258 kts 117°
2026-05-05 21:22 40.14664 44.06982 7733 ft 253 kts 95°
2026-05-05 21:22 40.14615 44.09278 7336 ft 253 kts 90°
2026-05-05 21:23 40.14588 44.11572 6928 ft 252 kts 91°
2026-05-05 21:23 40.14559 44.13857 6517 ft 250 kts 90°
2026-05-05 21:23 40.14556 44.16125 6122 ft 248 kts 89°
2026-05-05 21:23 40.14573 44.18346 5727 ft 242 kts 88°
2026-05-05 21:24 40.14600 44.20521 5354 ft 237 kts 88°
2026-05-05 21:24 40.14619 44.22611 5060 ft 229 kts 88°
2026-05-05 21:24 40.14634 44.24654 4770 ft 218 kts 88°
2026-05-05 21:24 40.14646 44.26550 4513 ft 200 kts 88°
2026-05-05 21:25 40.14657 44.28294 4227 ft 185 kts 88°
2026-05-05 21:25 40.14668 44.29886 3995 ft 167 kts 88°
2026-05-05 21:25 40.14677 44.31350 3749 ft 156 kts 88°
2026-05-05 21:25 40.14686 44.32747 3534 ft 152 kts 88°
2026-05-05 21:26 40.14695 44.34122 3335 ft 151 kts 89°
2026-05-05 21:26 40.14707 44.35491 3132 ft 151 kts 90°
2026-05-05 21:26 40.14718 44.36862 2940 ft 150 kts 89°
2026-05-05 21:26 40.14721 44.38208 2845 ft 140 kts 89°
2026-05-05 21:27 40.14726 44.39302 2838 ft 97 kts 90°
2026-05-05 21:27 40.14729 44.39956 2841 ft 47 kts 89°
2026-05-05 21:27 40.14728 44.40167 2840 ft 9 kts 103°
2026-05-05 21:27 40.14707 44.40238 2841 ft 5 kts 110°
2026-05-05 21:28 40.14715 44.40243 2841 ft 1 kts 342°
2026-05-05 21:28 40.14730 44.40122 2842 ft 16 kts 269°
2026-05-05 21:28 40.14749 44.40035 2842 ft 5 kts
2026-05-05 21:28 40.14796 44.40038 2841 ft 15 kts
2026-05-05 21:29 40.14868 44.40036 2840 ft 13 kts 359°
2026-05-05 21:29 40.14920 44.40036 2840 ft 0 kts 360°
2026-05-05 21:30 40.14925 44.40036 2840 ft 1 kts 360°
2026-05-05 21:31 40.14939 44.40036 2840 ft 4 kts 360°
2026-05-05 21:31 40.14973 44.40048 2841 ft 11 kts 26°
2026-05-05 21:31 40.15039 44.40073 2841 ft 9 kts
2026-05-05 21:31 40.15080 44.40074 2841 ft 3 kts
2026-05-05 21:32 40.15093 44.40074 2841 ft 0 kts